Location: Newark
(43.4100°N, 74.9600°W)
Time: 09:55:54
(UTC+00:00)

N. Korean satellite - Visible Passes

Search period start: 15 September 2019 00:00
Search period end: 25 September 2019 00:00
Orbit: 455 x 508 km, 97.2° (Epoch: 14 September)

Date Brightness Start Highest point End Pass type
(mag) Time Alt. Az. Time Alt. Az. Time Alt. Az.
16 Sep 10.3 09:53:25 10° ENE 09:54:15 11° E 09:55:04 10° ESE visible
19 Sep 9.7 10:09:43 10° NE 10:12:07 18° E 10:14:31 10° SE visible
23 Sep 9.9 10:02:34 10° ENE 10:04:33 15° E 10:06:32 10° SE visible
24 Sep 10.6 23:22:01 10° WSW 23:22:57 11° W 23:23:51 10° WNW visible
